Retour au catalogue

IRIDIUM 139

ActifCommunicationsPO
NORAD 42963·PAYLOAD·🇺🇸 United States

Lancé Oct 9, 2017 depuis Vandenberg Space Force Base

Loading…

Prochains Passages (prochaines 24 heures)

TLE

FraisSource: CelesTrak SupGP

Époque: Sep 14, 2026, 20:52 UTC

1 42963C 17061J   26257.86979167 -.00001593  00000+0 -56946-3 0  2573
2 42963  86.4030 347.8466 0002181  95.6807  44.4049 14.34219668    12

Suivez IRIDIUM 139 en temps réel avec AllMySat

Download on the App Store